Location: Beaurevoir
(49.9971°N, 3.3085°E)
Time: 20:59:10
(UTC+00:00)

Sich 1 Rocket - Pass Details

Date: 23 May 2024
Orbit: 613 x 649 km, 82.5° (Epoch: 14 June)

Event Time Altitude Azimuth Distance (km) Brightness Sun altitude
Rises 02:31:05 0° 351° (N) 2,962 7.7 -10.2°
Reaches altitude 10° 02:33:22 10° 353° (N) 2,043 6.9 -10.0°
Maximum altitude 02:37:54 74° 79° (E) 666 3.9 -9.5°
Drops below altitude 10° 02:42:20 10° 165° (SSE) 2,003 5.9 -9.1°
Sets 02:44:33 0° 167° (SSE) 2,899 6.7 -8.8°
